Regional Weather Roundup
Issued by NWS Charleston, SC

Current Version | Previous Version | Text Only | Print | Product List | Glossary Off
Versions: 1 2 3 4 5 6 7 8 9 10 11 12 13 14 15 16 17 18 19 20 21 22 23 24 25 26 27 28 29 30 31 32 33 34 35 36 37 38 39 40 41 42 43 44 45 46 47 48 49 50

000
ASUS42 KCHS 261027
RWRCHS

REGIONAL WEATHER ROUNDUP
NATIONAL WEATHER SERVICE CHARLESTON SC
500 AM EST SUN FEB 26 2017

NOTE: "FAIR" INDICATES FEW OR NO CLOUDS BELOW 12,000 FEET WITH NO
SIGNIFICANT WEATHER AND/OR OBSTRUCTIONS TO VISIBILITY.

NOT ALL STATIONS ARE QUALITY CONTROLLED. USE DATA WITH CAUTION...
ESPECIALLY DEWPOINT OBSERVATIONS.

SCZ027-030-031-034>040-042>050-261100-
...SOUTHEAST SOUTH CAROLINA...

CITY           SKY/WX    TMP DP  RH WIND       PRES   REMARKS
N CHARLESTON   CLEAR     49  23  36 NW8       30.06R
WATERFRONT PRK   N/A     53  27  36 NW5       30.04R
MOUNT PLEASANT LGT RAIN  48  28  46 NW6       30.07R
JOHNS ISLAND   FAIR      46  27  46 W6        30.07R
PINOPOLIS        N/A     54  36  50 NW12      29.96R
MONCKS CORNER  FAIR      45  21  39 NW3       30.07R
SUMMERVILLE    FAIR      46  27  46 NW3       30.08R
BEAUFORT MCAS  CLEAR     48  27  44 NW6       30.08R
BEAUFORT ARPT  FAIR      46  28  49 NW6       30.08R
HILTON HEAD IS CLEAR     50  25  37 VRB5G12   30.10R
WALTERBORO     SUNNY     43  27  52 NW6       30.09R
ALLENDALE      FAIR      41  25  52 CALM      30.09R

...SOUTHERN MIDLANDS AND PEE DEE...

CITY           SKY/WX    TMP DP  RH WIND       PRES   REMARKS
GEORGETOWN     FAIR      45  28  53 W3        30.07R
KINGSTREE      FAIR      43  25  49 NW5       30.07R
ORANGEBURG     CLEAR     46  24  42 NW7       30.07R
BARNWELL       FAIR      43  25  49 CALM      30.10R
AIKEN          FAIR      37  21  52 W3        30.11R
MANNING        FAIR      41  27  56 MISG      30.07R
COLUMBIA       CLEAR     41  26  55 NW3       30.07R
SUMTER         CLEAR     43  21  41 NW5       30.05R
FLORENCE       CLEAR     44  22  41 NW7       30.06R
MYRTLE BEACH   CLEAR     49  26  41 NW7       30.04R
N MYRTLE BEACH CLEAR     50  26  39 N7        30.02R

$$

GAZ063-065-086>088-099>101-113>116-118-119-134>141-150-261100-
...SOUTHEAST GEORGIA...

CITY           SKY/WX    TMP DP  RH WIND       PRES   REMARKS
SAVANNAH ARPT  CLEAR     46  28  49 W5        30.09R
HUNTER AAF     CLEAR     47  29  49 CALM      30.07R
FORT STEWART   CLEAR     46  27  47 CALM      30.08R
STATESBORO     CLEAR     39  32  74 CALM      30.10R
SYLVANIA       SUNNY    N/A N/A N/A CALM      30.11R
CLAXTON        FAIR     N/A N/A N/A CALM      30.12R

...CSRA...CENTRAL AND FAR SOUTHEAST GEORGIA...

CITY           SKY/WX    TMP DP  RH WIND       PRES   REMARKS
THOMSON        CLEAR     39  27  62 CALM      30.14R
AUGUSTA-BUSH   CLEAR     43  24  47 W5        30.08R
AUGUSTA-DANIEL CLEAR     45  19  35 NW9       30.08R
SWAINSBORO     FAIR      41  28  60 NW6       30.12R
VIDALIA        CLEAR     45  32  61 NW5       30.11R
EASTMAN        FAIR      37  22  53 CALM      30.15R
HAZLEHURST     FAIR      44  29  55 CALM      30.11R
ALMA           CLEAR     41  30  65 CALM      30.11R
WAYCROSS       CLEAR     47  32  55 N3        30.12R
JESUP          FAIR      43  32  65 CALM      30.12R
BAXLEY         FAIR      41  36  81 CALM      30.12R
BRUNSWICK      CLEAR     48  32  53 CALM      30.11R
SAINT SIMONS   CLEAR     51  26  37 NW6       30.10R

$$

SCZ027-028-034-036>038-045-046-048>050-GAZ119-141-261100-
...LAKE AND SUPPLEMENTAL COASTAL OBSERVATIONS...

STATION/POSITION TIME  TEMP    WIND        PRES    WAVE   SWELL
                       AIR SEA DIR/SP/G            HT/PER HT/PER/DIR
                 (UTC) (F)     (DEG/KT/KT) (MB)    (FT/S) (FT/S/D)
WINYAH BAY       0945   49     310/  2     1017.0R
LAKE MURRAY      0950   43     310/  3/  5 1017.9R
ACE BASIN NERRS  0945   46     300/  1     1018.0R
FORT PULASKI     1000   51 63  320/  8/ 10 1019.0
SAPELO ISLAND    1000   50     330/  6     1019.0

$$

ANZ835-935-AMZ111-154-330-350-352-354-370-450-454-472-261100-
...C-MAN AND BUOY OBSERVATIONS...

STATION/POSITION TIME  TEMP    WIND        PRES    WAVE   SWELL
                       AIR SEA DIR/SP/G            HT/PER HT/PER/DIR
                 (UTC) (F)     (DEG/KT/KT) (MB)    (FT/S) (FT/S/D)
BUOY 41004       0950   59 69  320/ 17/ 23 1015.9R   6/ 6   3/110/ 9
BUOY 41008       0950   57 62  330/ 19/ 21 1018.0R   4/ 4   2/100/10
FOLLY BEACH CMAN 1000   49     290/  4/  6 1018.3R
CAPERS NEARSHORE 0908   56 60  320/ 16/ 21 1016.1R
FRIPP NEARSHORE  1008   54 62  320/ 14/ 16 1018.1R


STATION/POSITION TIME  TEMP    WIND        PRES    WAVE   SWELL
                       AIR SEA DIR/SP/G            HT/PER HT/PER/DIR
                 (UTC) (F)     (DEG/KT/KT) (MB)    (FT/S) (FT/S/D)
5E ST. MARYS GA  1000      64                N/A     3/10   2/ 80/11
FRYING PAN BUOY  1010   59 69  340/ 19/ 25 1016.0
BUOY 41025       0950   58 73  330/ 19/ 25 1013.3R   8/ 8   5/150/10
CAPE LOOKOUT NC  1000   54     340/ 16/ 21 1014.7R
BUOY 41002       0950   71 71  230/ 16/ 17 1012.9R   6/10   5/ 80/10
BUOY 41010       NOT AVBL
ST AUGUSTINE FL  1000   58 65  340/ 15/ 17 1019.2R


$$



USA.gov is the U.S. government's official web portal to all federal, state and local government web resources and services.